| time (UTC) | temp F | wind direction | speed MPH | gust MPH | rain 1hr in | rain 24hr in | rain mn in | humidity % | barometer mb |
| 20260903174550 | 79 | 39 | 1.0 | 4.0 | 0.00 | 0.18 | 0.18 | 80 | 1011.8 |
| 20260903173049 | 79 | 248 | 1.0 | 7.0 | 0.00 | 0.18 | 0.18 | 78 | 1012.0 |
| 20260903171559 | 78 | 225 | 1.0 | 7.0 | 0.00 | 0.18 | 0.18 | 82 | 1012.0 |
| 20260903170045 | 77 | 303 | 0.0 | 9.0 | 0.00 | 0.18 | 0.18 | 81 | 1012.2 |
| 20260903164601 | 78 | 173 | 1.0 | 8.0 | 0.00 | 0.18 | 0.18 | 79 | 1012.2 |
| 20260903163042 | 78 | 212 | 2.0 | 8.0 | 0.00 | 0.18 | 0.18 | 79 | 1012.0 |
| 20260903161538 | 77 | 229 | 2.0 | 5.0 | 0.00 | 0.18 | 0.18 | 81 | 1012.4 |
| 20260903160036 | 76 | 321 | 2.0 | 5.0 | 0.00 | 0.18 | 0.18 | 82 | 1012.7 |
| 20260903154538 | 75 | 163 | 0.0 | 3.0 | 0.00 | 0.18 | 0.18 | 84 | 1012.6 |
| 20260903153031 | 75 | 246 | 2.0 | 4.0 | 0.00 | 0.18 | 0.18 | 83 | 1012.6 |
| 20260903151529 | 74 | 198 | 2.0 | 6.0 | 0.00 | 0.18 | 0.18 | 84 | 1012.8 |
| 20260903144552 | 72 | 175 | 0.0 | 3.0 | 0.00 | 0.18 | 0.18 | 87 | 1012.8 |
| 20260903143048 | 72 | 207 | 1.0 | 4.0 | 0.00 | 0.18 | 0.18 | 88 | 1012.9 |
| 20260903141541 | 71 | 327 | 0.0 | 3.0 | 0.00 | 0.18 | 0.18 | 90 | 1012.8 |
| 20260903140044 | 70 | 327 | 1.0 | 3.0 | 0.00 | 0.18 | 0.18 | 92 | 1012.8 |
| 20260903134537 | 70 | 329 | 1.0 | 3.0 | 0.00 | 0.18 | 0.18 | 93 | 1012.8 |
| 20260903133034 | 69 | 221 | 0.0 | 3.0 | 0.00 | 0.18 | 0.18 | 95 | 1012.8 |
| 20260903131532 | 69 | 174 | 1.0 | 6.0 | 0.00 | 0.18 | 0.18 | 95 | 1012.9 |
| 20260903130029 | 68 | 217 | 0.0 | 1.0 | 0.00 | 0.18 | 0.18 | 96 | 1013.2 |
| 20260903124527 | 68 | 217 | 0.0 | 1.0 | 0.00 | 0.18 | 0.18 | 96 | 1013.1 |
| 20260903123026 | 67 | 231 | 0.0 | 2.0 | 0.00 | 0.18 | 0.18 | 96 | 1013.3 |
| 20260903121531 | 67 | 231 | 0.0 | 0.0 | 0.00 | 0.18 | 0.18 | 96 | 1013.4 |
| 20260903120036 | 67 | 231 | 0.0 | 0.0 | 0.00 | 0.18 | 0.18 | 96 | 1013.6 |
| 20260903114520 | 66 | 231 | 0.0 | 0.0 | 0.00 | 0.18 | 0.18 | 96 | 1013.8 |
| 20260903113022 | 66 | 231 | 0.0 | 0.0 | 0.00 | 0.18 | 0.18 | 96 | 1013.7 |
| 20260903111518 | 66 | 231 | 0.0 | 0.0 | 0.00 | 0.18 | 0.18 | 96 | 1014.0 |
| 20260903110018 | 66 | 231 | 0.0 | 0.0 | 0.00 | 0.18 | 0.18 | 95 | 1013.9 |
| 20260903104516 | 66 | 231 | 0.0 | 0.0 | 0.00 | 0.18 | 0.18 | 95 | 1014.1 |
| 20260903103016 | 66 | 231 | 0.0 | 0.0 | 0.00 | 0.18 | 0.18 | 95 | 1013.6 |
| 20260903101522 | 66 | 231 | 0.0 | 0.0 | 0.00 | 0.18 | 0.18 | 95 | 1013.5 |
| 20260903100022 | 66 | 231 | 0.0 | 0.0 | 0.00 | 0.18 | 0.18 | 95 | 1013.6 |
| 20260903094525 | 66 | 231 | 0.0 | 0.0 | 0.00 | 0.18 | 0.18 | 95 | 1013.4 |
| 20260903093014 | 66 | 231 | 0.0 | 0.0 | 0.00 | 0.18 | 0.18 | 95 | 1013.3 |
| 20260903091512 | 66 | 231 | 0.0 | 1.0 | 0.00 | 0.18 | 0.18 | 95 | 1013.4 |
| 20260903090011 | 66 | 231 | 0.0 | 3.0 | 0.00 | 0.18 | 0.18 | 95 | 1013.4 |
| 20260903084509 | 66 | 139 | 0.0 | 2.0 | 0.00 | 0.18 | 0.18 | 95 | 1013.5 |
| 20260903083009 | 66 | 138 | 0.0 | 1.0 | 0.00 | 0.18 | 0.18 | 95 | 1013.8 |
| 20260903081508 | 66 | 205 | 0.0 | 6.0 | 0.00 | 0.18 | 0.18 | 95 | 1013.9 |
| 20260903080007 | 65 | 223 | 2.0 | 7.0 | 0.00 | 0.18 | 0.18 | 95 | 1013.8 |
| 20260903074505 | 65 | 123 | 1.0 | 7.0 | 0.00 | 0.18 | 0.18 | 95 | 1013.7 |
| 20260903073000 | 65 | 223 | 1.0 | 3.0 | 0.00 | 0.18 | 0.18 | 95 | 1014.1 |
| 20260903071610 | 65 | 226 | 1.0 | 4.0 | 0.00 | 0.18 | 0.18 | 95 | 1014.0 |
| 20260903070059 | 64 | 202 | 0.0 | 2.0 | 0.00 | 0.18 | 0.18 | 95 | 1014.1 |
| 20260903064600 | 64 | 202 | 0.0 | 4.0 | 0.01 | 0.20 | 0.18 | 94 | 1014.1 |
| 20260903063056 | 64 | 207 | 0.0 | 1.0 | 0.02 | 0.20 | 0.18 | 94 | 1014.0 |
| 20260903061555 | 64 | 207 | 0.0 | 2.0 | 0.06 | 0.20 | 0.18 | 94 | 1014.4 |
| 20260903060059 | 64 | 199 | 0.0 | 2.0 | 0.09 | 0.20 | 0.18 | 93 | 1014.5 |
| 20260903054551 | 64 | 294 | 0.0 | 5.0 | 0.10 | 0.19 | 0.17 | 93 | 1014.9 |
| 20260903053050 | 64 | 248 | 0.0 | 6.0 | 0.13 | 0.17 | 0.15 | 93 | 1015.3 |
| 20260903051607 | 64 | 170 | 2.0 | 6.0 | 0.12 | 0.14 | 0.12 | 92 | 1015.5 |
| 20260903050046 | 64 | 188 | 1.0 | 4.0 | 0.09 | 0.11 | 0.09 | 91 | 1016.0 |
| 20260903044543 | 64 | 231 | 1.0 | 5.0 | 0.07 | 0.09 | 0.07 | 90 | 1016.4 |
| 20260903043121 | 64 | 200 | 0.0 | 1.0 | 0.02 | 0.04 | 0.02 | 88 | 1016.9 |
| 20260903041536 | 65 | 200 | 0.0 | 3.0 | 0.00 | 0.02 | 0.00 | 87 | 1016.8 |
| 20260903040035 | 65 | 126 | 1.0 | 5.0 | 0.00 | 0.02 | 0.00 | 86 | 1016.9 |
| 20260903034540 | 64 | 198 | 0.0 | 4.0 | 0.00 | 0.02 | 0.02 | 86 | 1016.7 |
| 20260903033034 | 64 | 184 | 0.0 | 3.0 | 0.00 | 0.02 | 0.02 | 86 | 1016.7 |
| 20260903031532 | 64 | 28 | 0.0 | 3.0 | 0.00 | 0.02 | 0.02 | 88 | 1016.7 |
| 20260903030032 | 64 | 262 | 0.0 | 2.0 | 0.00 | 0.02 | 0.02 | 88 | 1016.4 |
| 20260903024530 | 64 | 263 | 0.0 | 0.0 | 0.00 | 0.02 | 0.02 | 88 | 1016.7 |
| 20260903023028 | 64 | 262 | 0.0 | 0.0 | 0.00 | 0.02 | 0.02 | 89 | 1017.3 |
| 20260903021528 | 64 | 263 | 0.0 | 1.0 | 0.00 | 0.02 | 0.02 | 88 | 1017.9 |
| 20260903020027 | 65 | 262 | 0.0 | 1.0 | 0.00 | 0.02 | 0.02 | 87 | 1018.1 |
| 20260903014527 | 65 | 262 | 0.0 | 2.0 | 0.00 | 0.02 | 0.02 | 86 | 1018.1 |
| 20260903013029 | 65 | 262 | 0.0 | 1.0 | 0.00 | 0.02 | 0.02 | 85 | 1018.3 |
| 20260903011526 | 65 | 262 | 0.0 | 3.0 | 0.00 | 0.02 | 0.02 | 83 | 1018.4 |
| 20260903010025 | 65 | 153 | 0.0 | 0.0 | 0.00 | 0.02 | 0.02 | 83 | 1018.0 |
| 20260903004526 | 65 | 154 | 0.0 | 5.0 | 0.00 | 0.02 | 0.02 | 82 | 1017.3 |
| 20260903003027 | 66 | 215 | 0.0 | 3.0 | 0.00 | 0.02 | 0.02 | 82 | 1017.0 |
| 20260903001523 | 66 | 231 | 0.0 | 3.0 | 0.00 | 0.02 | 0.02 | 83 | 1017.1 |
| 20260903000021 | 66 | 42 | 0.0 | 3.0 | 0.00 | 0.02 | 0.02 | 82 | 1017.6 |
| 20260902234524 | 66 | 258 | 0.0 | 3.0 | 0.00 | 0.02 | 0.02 | 82 | 1017.4 |
| 20260902233020 | 66 | 246 | 0.0 | 1.0 | 0.00 | 0.02 | 0.02 | 82 | 1017.6 |
| 20260902231519 | 66 | 246 | 1.0 | 2.0 | 0.00 | 0.02 | 0.02 | 81 | 1017.6 |
| 20260902230019 | 67 | 125 | 0.0 | 2.0 | 0.00 | 0.02 | 0.02 | 80 | 1018.0 |
| 20260902224523 | 67 | 101 | 0.0 | 2.0 | 0.00 | 0.02 | 0.02 | 77 | 1018.5 |
| 20260902223024 | 68 | 191 | 0.0 | 3.0 | 0.00 | 0.02 | 0.02 | 78 | 1018.7 |
| 20260902221518 | 68 | 180 | 1.0 | 9.0 | 0.00 | 0.02 | 0.02 | 78 | 1018.5 |
| 20260902220015 | 69 | 102 | 0.0 | 2.0 | 0.00 | 0.02 | 0.02 | 84 | 1018.9 |
| 20260902214514 | 69 | 223 | 0.0 | 3.0 | 0.00 | 0.02 | 0.02 | 83 | 1018.8 |
| 20260902213014 | 69 | 96 | 0.0 | 2.0 | 0.00 | 0.02 | 0.02 | 82 | 1018.5 |
| 20260902211513 | 69 | 202 | 1.0 | 4.0 | 0.00 | 0.02 | 0.02 | 82 | 1018.5 |
| 20260902210012 | 69 | 160 | 0.0 | 2.0 | 0.00 | 0.02 | 0.02 | 83 | 1018.8 |
| 20260902204513 | 69 | 160 | 0.0 | 3.0 | 0.00 | 0.03 | 0.02 | 83 | 1018.8 |
| 20260902203011 | 69 | 228 | 0.0 | 3.0 | 0.00 | 0.03 | 0.02 | 82 | 1018.5 |
| 20260902201509 | 69 | 100 | 0.0 | 3.0 | 0.00 | 0.03 | 0.02 | 82 | 1018.4 |
| 20260902200008 | 69 | 138 | 1.0 | 4.0 | 0.00 | 0.03 | 0.02 | 82 | 1018.6 |
| 20260902194513 | 68 | 31 | 0.0 | 2.0 | 0.00 | 0.04 | 0.02 | 83 | 1018.8 |
| 20260902193008 | 68 | 239 | 0.0 | 3.0 | 0.00 | 0.04 | 0.02 | 83 | 1018.9 |
| 20260902191507 | 67 | 217 | 2.0 | 4.0 | 0.00 | 0.04 | 0.02 | 84 | 1018.9 |
| 20260902190006 | 67 | 247 | 0.0 | 3.0 | 0.00 | 0.04 | 0.02 | 82 | 1019.2 |
| 20260902184505 | 67 | 113 | 0.0 | 3.0 | 0.00 | 0.18 | 0.02 | 84 | 1019.7 |
| 20260902183005 | 68 | 130 | 0.0 | 3.0 | 0.00 | 0.18 | 0.02 | 83 | 1019.8 |
| 20260902181505 | 68 | 219 | 0.0 | 3.0 | 0.00 | 0.18 | 0.02 | 80 | 1019.7 |